Tracking 28081 objects as of 27-Sep-2023
HD Live streaming from Space Station
objects crossing your sky now

STARLINK-5463

Track STARLINK-5463 now!
10-day predictions
STARLINK-5463 is classified as:


NORAD ID: 55673
Int'l Code: 2023-021AX
Perigee: 576.9 km
Apogee: 581.4 km
Inclination: 70.0 °
Period: 96.1 minutes
Semi major axis: 6950 km
RCS: Unknown
Launch date: February 17, 2023
Source: United States (US)
Launch site: AIR FORCE WESTERN TEST RANGE (AFWTR)
Your satellite tracking list
Your tracking list is empty




NASA's NSSDC Master Catalog

Two Line Element Set (TLE):
1 55673U 23021AX  23269.35066711  .00000054  00000-0  12335-4 0  9992
2 55673  69.9995 261.8274 0003234 268.8704  91.2085 14.98337757 35177
Source of the keplerian elements: AFSPC